Theta_e
335 337 337 337 338 338 338 338 338 338 338 340 341 342 342 343 344 344 343 343 344 344 343 343 342 342 343 343 342 338 337 341 344 341 328 320 321 320 320 321 321 323 324 325 326 327 329 330 332 332 333 334 335 336 337 338 338 339 340 339 340 340 340 340 340 338 337 335 333 331 330 328 327 327 328 329 333 337 338 339 337 333 333 331 328
336 337 337 337 338 339 338 338 338 339 340 341 342 342 343 343 344 343 344 344 344 344 344 344 343 343 343 344 344 342 340 343 345 342 330 319 320 320 321 323 323 325 326 328 329 331 332 332 332 333 334 335 335 336 337 338 338 339 340 340 340 340 340 339 338 336 334 334 333 333 332 331 331 331 332 332 332 331 329 328 326 324 325 328 329
336 337 337 338 339 339 339 339 340 340 341 342 343 343 344 344 344 344 344 344 344 344 344 344 344 344 344 344 345 344 343 344 344 342 331 320 321 323 323 326 326 328 329 329 330 330 331 331 332 333 334 335 335 336 337 338 338 338 338 338 338 337 336 335 334 333 333 333 333 333 334 333 333 334 334 334 333 332 330 329 329 331 333 335 335
337 337 338 338 339 339 339 340 340 340 341 342 344 344 345 345 344 345 345 344 344 344 344 344 344 344 345 344 344 344 343 344 345 342 333 323 324 326 326 328 328 328 328 327 328 328 329 330 332 333 334 335 336 336 337 337 336 336 335 334 333 332 331 331 330 330 331 331 331 331 331 332 332 333 332 332 332 332 333 333 333 334 335 335 335
337 337 337 338 338 339 340 340 339 339 340 342 344 344 344 344 344 345 344 344 345 345 344 344 344 344 345 344 344 345 343 344 345 343 336 327 326 329 328 328 329 330 331 330 331 331 330 331 332 333 334 334 335 335 335 334 332 331 330 330 329 328 328 327 328 328 329 329 329 329 329 329 330 330 329 329 330 331 332 333 333 334 335 337 339
336 336 337 338 339 340 341 341 340 340 340 342 343 344 344 344 344 345 345 345 344 344 345 344 344 344 344 344 343 344 343 343 344 345 341 332 329 330 329 329 332 335 339 341 341 340 337 334 331 331 332 333 332 332 331 330 330 329 328 328 328 328 328 328 328 328 329 329 329 329 328 328 328 328 329 330 331 332 334 335 336 338 339 341 342
336 338 339 340 340 341 342 342 342 341 341 342 344 344 345 345 345 345 345 345 345 345 345 344 345 344 344 344 343 343 343 343 343 343 341 336 333 332 330 332 335 338 341 344 345 344 341 338 333 329 329 330 330 330 330 330 331 331 331 330 330 330 329 328 327 327 328 329 329 329 328 328 328 329 329 330 331 332 335 337 339 341 343 344 345
338 339 340 340 340 341 342 341 341 342 342 343 345 345 345 345 345 346 345 345 346 345 344 344 345 344 344 344 343 342 342 342 342 340 337 335 335 335 335 334 334 337 339 340 342 342 340 339 335 331 329 329 330 330 331 332 333 333 333 332 332 332 331 330 328 327 327 328 329 329 329 328 328 329 329 330 331 331 333 336 339 342 344 346 347
339 339 340 339 340 341 341 341 342 344 344 344 345 345 345 345 346 346 346 345 345 344 343 344 344 344 343 343 343 341 342 342 341 340 337 336 338 340 341 337 334 335 336 335 337 339 337 334 333 331 331 332 333 333 333 333 333 333 333 332 332 332 332 332 331 331 330 330 330 329 328 328 328 328 330 331 331 331 332 334 337 340 344 346 348
340 340 340 340 341 341 341 342 344 345 344 344 344 345 345 346 346 346 346 346 345 343 343 344 344 343 342 342 342 341 342 342 340 341 340 339 341 342 343 340 336 335 336 335 335 336 332 329 329 329 331 333 334 333 333 332 333 332 332 331 331 332 333 334 335 335 335 334 334 334 332 330 328 327 327 329 330 331 331 331 334 336 340 343 345
341 341 341 341 341 340 341 342 343 344 343 343 344 345 346 346 346 346 346 346 345 344 344 343 342 341 340 341 342 342 343 342 340 341 341 340 342 342 342 341 339 338 339 340 338 337 333 330 329 329 330 332 333 333 333 332 332 332 332 332 334 336 337 338 339 339 338 338 338 338 338 337 334 330 329 328 328 329 330 330 331 333 336 338 341
342 343 343 342 340 340 340 341 342 343 343 343 344 345 346 346 347 347 347 347 345 344 344 343 343 342 340 340 341 343 343 341 340 341 342 342 342 342 341 339 340 339 339 340 338 338 337 335 333 331 330 331 332 334 334 334 334 334 336 338 339 341 342 342 342 342 342 341 341 340 340 340 339 336 333 331 330 329 330 330 331 331 333 334 337
342 344 344 343 341 339 340 342 343 344 343 341 343 345 346 346 347 347 347 346 344 343 342 341 343 343 341 340 340 342 343 342 341 341 343 343 342 342 340 339 340 340 337 336 336 336 338 339 336 331 330 331 332 336 337 338 338 340 341 342 344 344 344 345 344 345 344 343 343 342 341 341 341 339 337 335 333 332 331 332 333 333 334 335 336
343 344 345 343 341 339 340 342 343 344 343 342 344 346 346 346 347 346 345 345 344 343 341 340 340 340 340 340 340 341 343 343 343 343 343 344 343 342 341 339 339 338 335 334 336 336 337 339 336 331 331 333 334 337 339 340 341 342 343 344 345 346 346 346 346 346 346 345 344 344 343 343 341 340 339 337 335 335 334 334 335 337 338 339 339
345 345 344 342 340 339 340 341 342 343 344 343 344 345 346 346 346 346 344 344 343 342 342 341 340 339 338 339 339 341 343 344 344 344 343 343 344 343 342 341 339 336 334 334 337 337 336 336 336 334 334 335 336 338 339 339 340 341 342 344 346 348 348 348 347 347 347 347 346 347 346 344 342 341 339 338 336 335 336 335 336 338 340 342 342
346 345 343 340 339 341 343 344 344 344 343 343 343 343 344 345 345 345 344 344 343 344 345 344 341 340 340 340 341 342 343 343 342 343 342 342 344 343 342 341 338 335 335 336 338 339 337 335 336 338 337 338 338 338 338 338 337 338 340 341 343 346 349 349 347 347 348 348 349 350 347 345 343 341 338 337 335 334 335 336 337 338 340 342 343
345 343 341 339 339 342 344 345 344 343 343 343 343 343 344 345 344 344 344 345 346 346 346 344 342 341 342 343 343 342 343 344 343 342 341 341 343 344 342 341 338 336 336 337 338 339 338 336 337 339 339 339 339 339 339 338 338 339 339 340 341 344 347 347 346 347 348 350 351 351 347 344 342 338 334 333 334 332 332 334 336 338 340 342 344
342 341 340 339 339 341 342 342 342 342 342 342 343 345 345 344 344 345 346 347 347 347 346 345 344 344 344 345 345 345 344 344 343 343 342 342 342 343 342 341 340 339 339 338 337 339 340 338 339 341 340 340 341 341 341 340 340 340 340 340 340 342 344 345 344 345 348 349 350 350 347 344 343 338 332 330 331 331 330 331 333 335 336 338 342
341 341 340 339 339 340 340 341 341 340 341 342 343 345 345 344 345 346 346 347 347 347 346 345 346 346 347 347 347 346 345 343 342 342 342 342 342 342 342 341 341 341 341 340 339 339 340 340 340 341 341 340 341 342 341 341 342 342 342 341 340 343 346 345 344 344 345 346 347 348 346 345 345 342 336 330 329 329 329 329 329 330 331 332 335
342 341 340 339 339 338 339 340 340 341 343 343 343 344 345 344 345 345 346 347 346 346 345 346 346 346 346 346 346 346 345 342 342 341 341 341 342 342 342 342 341 341 341 341 341 340 340 340 341 342 342 341 342 342 342 343 344 344 343 341 342 346 347 346 346 346 345 343 344 346 346 345 345 344 339 332 329 329 329 329 329 329 329 329 331
342 341 340 340 338 338 339 339 340 341 344 344 343 345 345 345 345 345 346 346 346 346 346 346 346 346 345 345 345 345 345 343 342 342 341 340 342 342 342 341 341 341 342 341 342 342 341 341 341 342 342 342 342 342 343 344 344 344 343 343 345 347 347 346 347 347 346 343 344 346 345 346 345 343 339 334 330 329 329 328 328 329 329 329 329
343 342 341 340 339 338 338 339 340 341 343 344 344 344 344 345 345 344 345 345 345 346 346 347 346 346 346 346 345 346 346 345 344 344 343 341 341 342 341 341 341 341 341 342 342 341 341 341 340 341 342 342 343 342 343 344 344 344 344 345 346 346 347 347 346 347 346 344 344 345 345 346 345 343 341 338 333 330 331 331 329 328 328 328 328
344 343 342 341 340 340 340 340 341 341 343 344 344 343 343 344 345 344 344 345 345 346 346 346 347 347 348 347 347 347 346 345 345 345 344 342 342 341 341 342 342 342 342 342 342 342 342 342 341 341 342 343 343 343 343 344 344 345 346 346 346 346 347 346 346 346 345 344 345 345 346 346 346 344 342 340 336 335 337 337 335 331 329 328 328
345 343 342 342 342 343 343 341 341 342 344 343 342 341 341 343 344 344 344 344 345 345 345 346 347 347 347 347 347 346 345 345 345 345 346 343 342 342 341 341 342 342 342 342 343 344 344 342 343 342 342 343 343 343 344 344 343 346 347 346 345 346 347 346 345 345 344 345 346 346 347 346 346 344 342 341 339 340 342 341 340 338 335 333 331
344 343 343 342 342 343 344 343 343 343 343 342 340 340 340 341 343 344 344 343 344 344 343 344 346 346 346 347 347 346 345 346 346 345 345 344 343 343 343 342 342 342 343 343 343 344 344 344 344 344 343 343 343 344 346 344 344 346 347 345 344 345 346 344 343 344 345 346 347 347 346 346 345 344 342 341 341 341 342 342 342 343 342 340 339
342 342 343 343 342 343 344 344 344 345 343 342 340 341 341 341 341 342 342 342 342 341 341 344 346 346 346 347 347 346 346 346 345 344 345 345 345 345 345 344 344 343 343 344 344 344 345 345 346 346 345 345 345 346 347 345 344 346 346 345 344 345 345 343 343 346 347 346 346 345 344 345 344 342 342 342 341 342 342 343 343 344 345 344 343
342 342 343 343 343 344 344 344 345 345 344 343 343 343 343 341 340 341 341 340 340 340 340 343 345 345 345 346 346 346 346 346 346 346 346 347 346 346 346 345 345 344 344 344 345 345 345 345 347 347 346 347 347 348 348 346 345 345 346 346 346 347 345 343 345 347 347 346 345 344 344 343 342 342 342 341 341 343 344 344 344 345 346 346 346
342 343 343 344 343 345 345 345 345 345 345 345 347 348 346 343 341 342 341 339 339 339 339 340 342 342 343 345 347 346 347 347 347 347 347 347 347 348 347 347 347 345 344 344 344 345 344 343 345 346 346 346 346 346 346 345 345 346 346 347 348 348 346 345 346 347 347 347 346 345 343 342 342 343 342 341 342 344 345 345 345 346 347 347 347
344 343 344 344 344 344 345 344 344 345 345 345 346 348 349 346 342 343 344 342 339 339 340 340 341 342 342 344 346 346 347 347 346 347 348 347 347 347 347 347 348 346 344 344 343 342 342 342 343 343 343 342 342 342 343 344 346 348 348 349 349 349 347 346 346 346 346 347 346 344 343 343 344 343 342 342 344 345 346 346 346 347 348 348 348
346 346 345 346 347 346 345 344 343 343 343 342 343 344 347 346 344 345 347 345 342 339 340 340 342 345 346 346 346 345 345 345 345 346 346 345 346 345 344 345 346 345 344 344 344 343 344 345 345 343 342 341 340 340 342 345 347 348 349 349 349 348 348 348 347 345 344 344 345 344 343 343 344 343 343 344 346 346 345 347 347 347 348 348 347
347 348 348 348 349 348 346 344 342 342 341 341 341 340 341 342 343 345 346 346 344 341 340 341 344 347 349 349 349 347 345 344 345 346 345 345 346 345 344 345 344 343 344 345 346 347 349 348 346 345 344 342 341 341 342 344 346 346 347 347 348 348 348 348 346 343 340 341 343 343 342 343 344 344 344 345 346 346 346 347 347 347 348 348 347
349 349 349 348 348 348 347 344 342 341 341 341 340 339 339 339 340 343 345 344 344 344 343 342 344 346 349 351 351 350 349 348 348 348 347 347 347 345 346 347 346 346 346 345 346 348 350 349 346 345 346 345 344 343 344 344 346 347 347 346 346 345 346 346 345 344 342 342 342 340 340 343 345 345 345 346 346 347 347 347 347 348 350 351 350
352 351 350 350 349 348 347 346 343 341 341 341 340 339 340 340 339 343 345 344 344 345 344 342 343 344 346 348 350 350 350 350 349 348 348 348 348 347 348 349 348 348 347 347 348 349 350 349 348 347 347 347 346 347 347 346 346 347 346 344 343 344 345 346 346 346 344 343 342 339 340 342 343 342 343 345 346 346 347 347 349 353 354 354 352
352 352 352 351 350 349 347 346 344 342 342 342 341 339 339 340 340 341 344 343 343 346 346 344 342 342 343 346 348 349 348 346 345 346 346 345 346 347 349 350 348 348 349 349 350 350 349 349 348 348 348 348 348 349 349 347 345 345 343 343 344 345 346 347 346 345 343 342 341 339 339 341 341 341 342 344 346 348 350 352 354 356 356 355 354
352 351 351 351 351 351 349 345 342 341 343 346 345 342 340 341 340 339 339 340 344 348 348 345 344 343 344 346 348 348 346 345 345 347 348 347 347 348 350 351 350 349 350 350 350 350 351 350 349 348 349 348 346 347 348 348 347 346 344 346 345 344 344 345 344 344 344 344 342 340 339 340 340 340 342 344 347 349 352 355 356 356 355 355 355
353 352 352 351 351 351 348 344 341 340 344 348 350 347 343 343 342 341 340 339 343 346 347 346 346 345 344 344 346 347 347 347 348 350 352 351 350 350 351 351 351 350 351 351 352 353 352 350 348 347 347 345 342 344 348 348 347 346 346 346 345 343 343 344 345 346 346 344 342 340 340 340 340 342 343 345 347 350 351 353 355 355 355 355 355
353 352 353 352 352 351 349 345 342 343 347 350 352 351 348 346 346 346 345 342 343 346 348 350 350 350 348 347 348 349 349 350 350 351 353 353 352 351 352 352 351 352 353 353 352 352 351 349 346 343 342 340 337 338 344 347 346 346 346 345 344 344 343 342 344 345 345 343 341 340 340 341 341 343 344 345 348 350 350 352 354 354 355 355 355
354 353 353 353 353 351 350 349 346 348 350 351 352 352 351 350 348 347 348 348 348 349 350 350 350 351 351 350 352 353 352 352 352 351 352 352 352 352 352 351 351 352 352 352 351 350 348 345 340 337 335 335 334 334 338 342 344 344 344 342 342 342 340 339 341 342 342 341 340 341 342 342 343 345 346 346 348 350 351 351 353 354 355 355 354
354 354 353 353 354 353 352 353 351 351 351 351 351 352 352 352 350 349 350 351 351 351 351 351 351 351 350 351 353 355 354 354 354 353 351 351 352 353 353 352 351 351 350 349 348 346 343 338 335 335 335 336 338 339 340 341 343 344 343 340 338 339 340 341 342 343 342 342 342 342 344 344 346 346 346 347 348 349 349 350 352 354 355 354 353
353 354 353 353 353 353 354 354 353 353 352 351 351 351 351 351 351 352 352 352 352 352 352 352 352 352 352 353 354 354 354 353 352 352 351 352 352 352 352 353 352 350 349 349 347 343 339 337 338 340 340 341 343 344 343 343 342 342 341 341 342 343 344 344 344 345 345 344 343 343 345 346 347 346 346 347 348 348 348 349 350 352 354 353 352
353 353 353 353 353 353 353 353 354 353 353 351 350 350 348 348 351 352 352 353 353 352 352 352 352 352 352 353 353 353 353 351 351 351 351 351 351 351 351 352 352 351 351 351 348 342 339 340 342 343 343 343 343 344 344 343 343 342 343 344 346 346 346 345 346 347 347 346 345 345 347 348 348 347 348 348 348 348 348 349 349 349 350 350 350
352 352 352 353 353 353 353 353 353 354 353 352 351 351 349 349 351 352 351 351 351 351 351 350 350 351 351 351 352 352 352 350 349 349 349 350 351 351 351 352 352 352 352 351 347 343 342 342 343 344 343 341 342 344 345 344 345 345 346 347 348 348 347 347 346 347 348 347 347 347 349 349 348 348 348 348 348 348 347 348 348 348 348 348 349
349 350 351 352 352 353 352 352 353 354 353 351 350 350 351 351 351 351 350 350 349 349 350 348 348 349 349 350 351 351 351 349 348 348 348 348 349 350 351 351 351 350 350 350 348 345 344 344 344 344 343 343 344 345 345 345 347 348 349 350 350 350 349 349 348 349 349 348 348 348 349 349 348 348 348 347 347 347 347 348 349 349 349 350 351
347 347 348 349 351 352 352 352 352 352 351 351 350 350 350 351 351 351 351 351 350 350 350 348 346 347 348 349 350 350 349 349 349 348 347 347 347 349 349 349 349 349 349 348 348 346 345 345 345 345 345 345 345 346 346 347 348 349 350 350 351 351 351 351 350 349 349 349 349 348 348 348 347 347 347 346 346 347 349 349 349 349 349 350 350
347 347 346 347 349 351 352 351 350 350 349 350 350 350 350 351 351 351 352 353 350 349 350 349 346 345 347 348 348 348 348 348 348 348 348 347 347 348 347 347 347 348 349 349 348 347 346 346 346 346 346 346 347 347 348 349 349 350 350 351 351 351 351 350 349 349 349 348 347 347 347 346 345 345 345 342 343 347 349 349 349 348 348 349 349
346 347 347 347 347 349 350 349 349 349 349 350 349 349 350 351 350 351 352 353 351 349 349 350 348 345 344 345 346 347 347 346 346 345 346 347 347 347 347 348 349 349 350 351 350 350 349 348 347 347 348 347 347 348 349 350 350 351 351 351 350 350 350 350 349 348 346 344 345 344 343 342 341 340 337 334 337 343 346 347 347 347 346 346 346
345 345 347 347 346 347 348 349 349 348 348 349 348 348 349 350 350 350 351 351 351 350 349 350 350 348 344 342 343 345 345 345 343 342 343 345 346 348 349 349 350 351 351 351 351 351 351 350 349 348 347 347 348 349 351 350 351 351 350 350 350 350 350 350 348 343 338 338 341 339 336 337 336 333 329 327 331 336 337 339 344 345 345 345 344
345 345 345 346 346 346 347 347 347 348 348 347 346 346 348 348 348 349 350 350 350 349 348 349 348 347 344 341 341 343 343 343 343 343 344 345 348 349 350 350 351 352 352 351 351 351 350 349 348 348 347 348 349 350 350 350 350 350 350 350 350 350 348 345 339 331 327 332 336 332 331 335 335 330 325 323 324 326 325 328 334 337 339 340 339
347 346 346 347 347 347 347 347 347 347 347 347 346 346 347 347 346 346 347 348 349 348 348 348 347 346 344 342 340 341 342 343 344 344 345 346 348 349 349 349 350 350 350 350 349 348 348 348 348 348 348 348 348 349 349 349 349 349 350 349 347 344 339 333 327 322 323 329 331 329 331 335 335 331 327 321 320 320 318 319 322 325 326 328 330
349 348 348 348 348 348 348 347 347 347 347 347 348 348 348 347 347 346 346 346 346 347 346 346 346 346 344 341 339 340 341 343 344 345 346 347 348 348 348 347 347 347 347 347 346 347 347 347 347 347 347 347 347 348 348 348 349 348 346 341 336 332 327 323 320 319 322 329 331 328 330 334 333 331 327 321 316 315 313 313 314 316 317 319 323
349 349 349 348 348 348 348 349 348 348 347 346 346 347 349 349 348 347 347 347 346 346 347 346 347 347 345 343 341 341 343 345 346 346 347 348 348 348 347 347 346 346 345 345 346 345 345 344 344 346 347 347 347 347 347 347 346 341 334 329 328 327 323 318 316 315 320 329 332 329 330 333 331 329 327 321 315 311 310 309 310 311 313 318 323
Wind_Speed
16 17 17 17 17 17 17 17 17 16 16 15 14 14 14 15 15 15 14 12 11 10 9 9 8 8 7 6 7 8 6 6 9 11 12 12 11 10 10 10 10 9 9 9 9 8 8 8 8 8 7 8 8 8 8 8 8 8 7 7 8 8 8 9 9 10 11 11 12 12 12 13 13 12 12 11 11 10 9 9 10 10 10 10 11
16 17 17 17 16 17 17 16 16 16 15 15 14 15 15 16 16 15 13 11 10 8 8 8 8 9 9 9 10 10 8 8 9 11 13 13 12 11 10 10 10 10 9 9 9 9 9 9 9 8 8 8 9 8 8 8 8 7 7 7 7 8 8 9 9 10 10 11 11 11 11 12 12 12 12 11 11 11 10 10 9 9 9 9 10
16 16 17 16 16 16 16 16 15 15 15 15 14 15 15 15 14 13 11 9 8 8 7 7 7 8 8 7 7 8 9 10 11 12 13 13 12 11 10 10 10 10 10 10 10 10 10 10 9 9 9 9 9 9 8 8 7 7 7 7 7 7 8 8 8 9 9 9 9 9 10 10 10 10 10 11 11 11 10 10 9 10 10 10 10
16 16 16 16 16 16 16 15 15 15 14 14 14 15 15 14 13 11 10 9 8 8 6 5 6 6 5 4 4 5 7 10 11 12 12 12 12 11 10 10 11 12 13 13 13 12 12 12 11 11 10 10 9 9 8 7 7 7 7 7 8 8 8 8 8 8 8 8 8 8 8 9 9 10 10 10 10 10 9 9 9 9 10 10 11
17 17 16 16 16 16 15 15 14 14 14 14 15 15 15 13 12 11 10 9 7 6 5 5 4 5 3 1 2 3 4 8 10 10 10 10 11 11 10 11 13 15 16 16 16 16 15 14 13 12 10 10 9 8 7 7 7 7 8 8 9 9 10 10 10 9 9 8 8 8 8 9 9 10 10 10 10 10 10 10 10 10 10 12 12
18 17 17 16 15 15 15 14 14 13 13 13 14 14 14 13 12 11 9 8 7 6 5 5 3 3 2 1 1 1 2 5 7 7 8 7 8 8 10 12 14 15 16 16 17 17 17 16 14 12 11 9 8 8 8 8 9 9 10 10 11 11 12 12 12 12 11 10 10 10 9 10 10 10 11 11 10 10 10 10 10 10 11 12 12
16 16 15 15 14 14 14 13 13 13 12 13 14 14 13 13 12 10 9 8 8 6 6 6 4 3 3 2 4 3 2 4 6 5 6 5 5 5 9 12 12 13 13 13 14 15 16 16 15 13 11 9 8 8 9 10 10 11 12 13 13 13 13 14 14 14 13 13 12 12 11 11 11 11 11 11 11 11 10 10 10 11 11 12 12
15 14 14 14 14 14 13 12 12 12 12 13 14 13 13 13 12 10 9 9 7 6 7 8 6 4 4 3 5 5 5 3 5 6 6 6 5 5 7 9 10 11 11 11 12 13 14 14 14 14 12 10 9 10 10 11 12 13 14 14 14 14 14 14 15 14 14 14 14 13 13 13 12 11 11 11 11 11 11 11 11 11 11 12 13
14 14 14 13 12 13 12 12 12 12 12 13 13 13 13 13 11 10 10 10 8 8 9 9 8 7 5 4 5 6 5 2 3 5 6 7 7 7 6 7 8 8 10 11 11 12 12 12 13 13 13 11 11 11 11 12 13 14 14 15 15 15 15 15 15 15 15 15 15 14 15 15 14 14 13 12 11 11 11 11 12 12 12 13 14
15 14 14 12 12 12 12 13 12 11 12 12 12 12 13 12 11 11 10 9 9 10 11 11 11 10 7 4 3 5 4 1 1 3 5 7 8 8 8 8 8 8 10 10 10 11 12 12 12 13 13 12 11 11 11 12 12 13 14 15 16 16 16 16 16 17 17 16 16 15 15 16 16 16 15 15 14 13 12 12 12 12 13 13 14
15 14 14 13 13 13 13 13 12 11 11 12 12 12 12 12 11 11 10 9 10 11 11 11 12 11 9 6 4 4 3 2 3 3 5 6 7 8 9 8 8 8 9 9 9 9 10 11 12 11 11 11 10 10 11 12 12 13 14 14 15 16 16 16 17 17 17 17 18 17 16 16 16 17 16 16 16 15 15 14 14 14 14 14 15
14 13 14 14 14 14 13 13 12 11 11 12 13 12 12 12 12 10 9 10 11 10 8 8 10 10 8 8 6 5 5 3 3 3 5 5 6 7 7 6 7 7 7 8 8 7 8 9 10 10 10 10 11 10 11 12 12 13 14 14 15 15 15 16 16 17 17 18 19 19 18 17 17 17 17 16 16 16 16 15 15 15 15 15 15
12 12 13 13 13 13 13 12 12 11 10 11 12 13 13 12 11 9 9 10 9 8 7 7 10 10 9 9 8 9 7 5 4 4 3 3 3 5 7 5 5 6 7 8 8 7 7 7 9 10 10 10 11 11 11 12 12 12 12 13 14 14 15 15 16 16 17 18 19 20 20 19 18 18 17 17 16 16 15 15 15 15 15 16 16
11 12 12 11 12 13 13 12 12 11 10 10 12 13 13 12 10 9 8 7 7 8 7 8 10 10 9 10 9 11 11 8 7 7 5 3 2 2 5 5 4 6 7 8 9 9 8 7 8 10 11 10 10 10 10 10 10 10 11 11 12 13 14 15 16 15 16 17 18 20 21 21 20 19 18 17 16 15 15 15 15 15 15 16 16
11 11 11 11 12 13 12 11 11 11 10 10 12 13 12 11 10 8 7 6 7 9 7 7 8 8 8 9 9 11 11 11 10 9 9 8 5 1 3 5 5 6 8 8 9 9 9 9 9 9 9 8 7 7 8 8 8 9 10 11 12 13 14 15 16 15 15 17 19 21 21 21 20 19 18 17 16 15 15 14 14 15 15 16 17
10 11 11 11 12 12 11 10 10 10 11 12 13 12 12 11 10 7 7 7 8 8 6 6 8 7 7 7 8 9 10 9 9 9 10 10 7 4 1 4 6 7 8 8 8 8 8 8 9 8 8 8 7 8 8 9 10 11 11 12 13 14 14 15 16 16 15 16 18 20 21 20 19 18 17 17 16 15 14 14 14 14 15 16 17
11 10 9 10 11 11 10 9 9 10 12 13 12 12 12 11 9 7 7 8 8 7 6 7 8 6 4 5 5 7 8 7 7 8 9 10 9 7 4 2 6 6 5 6 6 6 7 7 7 7 8 9 9 10 11 12 12 13 14 14 14 15 15 16 17 16 16 16 18 20 20 19 19 19 17 16 16 15 15 14 13 13 14 15 16
11 10 9 9 10 10 10 10 10 11 12 12 12 12 13 11 9 8 8 8 7 6 6 8 7 5 4 3 2 1 3 5 8 10 11 11 11 9 6 3 4 4 3 3 4 4 4 4 4 5 6 8 10 12 14 14 15 15 15 15 16 16 16 16 17 16 16 16 18 19 18 18 19 20 19 17 16 16 16 15 14 14 14 14 15
9 9 9 9 9 10 11 11 11 12 12 12 11 12 13 11 9 9 8 7 7 6 7 8 7 5 5 5 4 4 4 2 7 10 12 14 14 12 8 5 2 2 2 1 2 3 3 2 2 4 5 8 11 14 16 17 18 17 16 16 16 15 16 16 16 17 17 17 17 17 16 17 19 20 20 19 17 17 17 16 15 15 14 15 15
9 9 10 10 10 10 11 12 12 13 12 11 11 12 12 11 10 10 8 7 7 6 7 8 7 6 6 5 4 3 5 4 4 5 9 13 16 14 10 8 5 1 1 2 2 1 2 1 0 2 4 6 11 14 17 19 20 18 17 16 14 14 16 16 16 18 19 17 15 15 15 16 18 20 20 19 18 18 17 17 16 16 15 15 16
10 9 9 10 10 10 11 11 12 11 10 10 11 12 12 11 11 10 8 7 7 7 6 6 6 5 5 5 5 4 4 4 5 5 5 11 16 16 11 9 7 4 4 5 6 6 6 5 4 4 5 6 10 13 17 19 19 17 16 14 13 14 16 16 17 19 20 16 13 13 14 15 17 19 19 20 19 18 18 18 17 17 16 16 16
11 10 10 10 11 11 11 11 10 10 9 9 11 12 12 12 12 11 9 8 8 7 6 6 6 5 5 5 5 4 4 4 4 6 6 8 14 16 11 8 7 6 6 7 6 4 5 6 8 8 7 7 8 12 15 17 17 15 14 13 13 14 15 16 18 20 20 16 13 13 14 14 15 17 18 20 19 18 19 19 18 17 17 17 17
12 12 11 11 11 12 12 11 10 10 9 9 10 12 12 13 13 12 10 8 8 8 7 6 6 6 6 5 5 4 4 4 5 5 4 5 9 13 10 5 5 5 5 5 2 4 4 4 6 8 8 7 8 10 14 15 16 16 14 13 12 13 13 15 18 19 19 16 13 14 14 14 15 15 17 19 19 18 20 21 20 18 17 17 18
13 13 12 12 12 12 12 12 12 11 10 10 11 11 11 12 14 13 11 9 9 8 7 7 8 8 7 5 4 3 2 4 4 4 3 2 4 7 7 4 4 5 6 4 3 6 6 5 4 5 7 7 8 9 12 13 16 15 12 11 11 11 12 15 17 18 18 16 14 14 15 14 14 14 15 17 17 18 20 22 21 20 18 18 18
14 14 14 13 12 13 13 13 13 12 11 11 11 10 10 11 12 13 12 10 10 8 7 8 10 8 6 4 3 1 2 3 2 2 2 1 3 5 5 5 4 4 5 5 4 5 4 5 6 5 5 7 8 9 11 13 14 13 10 11 12 11 13 16 17 17 17 16 14 13 15 14 13 13 13 15 16 17 18 20 21 21 20 20 19
15 14 14 14 13 13 13 13 13 13 13 13 12 11 11 11 11 12 12 11 10 8 7 10 11 9 7 4 2 2 2 2 1 0 1 3 3 5 5 6 7 7 6 6 7 6 5 6 8 6 4 5 7 9 10 11 13 12 11 14 15 14 15 17 15 15 15 14 14 14 15 13 12 13 13 14 15 17 18 18 19 20 20 20 20
15 14 14 14 14 13 13 13 13 14 14 14 13 12 12 12 11 11 12 11 11 9 8 11 12 9 8 7 5 5 4 3 1 1 3 4 5 6 7 8 9 9 10 10 9 9 9 9 7 6 4 3 5 7 9 10 12 13 13 15 16 16 17 15 13 13 13 13 15 15 14 12 12 13 13 14 15 16 17 17 17 18 19 19 19
15 15 15 14 14 13 13 14 13 13 14 13 13 12 12 12 11 11 11 11 11 9 9 10 11 9 9 10 9 7 6 6 5 4 4 6 6 7 8 9 9 10 11 11 10 9 10 10 10 9 8 8 9 10 12 13 13 13 14 14 15 16 15 12 10 11 12 14 15 13 13 12 12 14 15 15 15 15 17 16 15 16 17 17 17
15 15 15 15 14 13 13 13 12 12 13 13 13 12 12 11 11 10 10 11 11 10 10 10 10 10 10 11 12 11 9 9 8 7 7 7 8 9 10 10 9 9 9 10 9 8 8 9 9 10 10 11 12 12 14 14 12 12 13 14 15 15 11 9 10 13 14 15 15 13 12 12 14 16 16 14 14 15 15 15 15 16 17 17 16
15 16 16 16 15 13 13 13 13 12 12 13 13 13 13 12 11 10 10 10 10 10 10 9 9 10 10 10 11 12 11 10 9 9 9 8 7 7 8 9 9 9 9 9 10 9 7 7 7 8 9 10 10 11 12 12 11 12 13 15 16 13 10 10 12 13 14 13 12 11 11 13 17 17 14 13 14 15 15 16 18 19 19 18 15
16 16 16 16 15 13 13 13 13 14 13 13 13 13 13 13 12 11 11 11 11 10 10 9 9 11 10 8 9 9 10 9 9 9 9 8 7 4 3 6 8 8 7 9 10 9 9 9 8 10 12 11 10 10 11 11 10 12 13 13 13 11 11 12 11 11 12 13 12 12 13 16 17 15 12 13 15 17 17 19 21 22 20 17 14
15 16 16 15 14 13 13 13 14 15 14 13 15 14 14 14 13 13 13 11 10 9 9 9 9 11 11 11 10 9 10 10 11 10 9 9 8 6 5 7 8 8 8 10 12 11 10 10 11 12 14 12 10 10 10 10 9 10 10 8 9 9 9 9 9 10 12 14 15 16 19 19 17 15 16 17 17 19 20 21 22 19 15 13 12
15 15 16 16 15 14 14 13 14 15 14 13 15 15 14 14 14 14 14 13 10 9 9 9 10 11 12 13 12 11 11 12 12 12 12 12 11 9 9 9 10 11 11 11 14 14 12 11 12 14 14 12 10 8 9 8 8 8 7 8 9 10 10 10 10 10 11 13 16 19 21 20 19 20 21 21 20 19 19 18 16 12 11 12 12
15 15 16 16 16 15 15 15 15 14 13 13 14 15 14 14 14 14 14 13 12 10 9 9 10 12 12 12 12 11 10 9 9 8 9 11 12 12 10 9 8 9 10 11 12 14 13 13 14 14 13 11 9 7 7 7 8 7 7 9 11 11 10 11 10 10 12 14 17 20 21 20 21 23 24 24 21 17 15 12 10 9 11 12 12
14 16 16 15 15 15 15 17 17 14 12 11 11 12 13 13 13 13 13 12 10 9 9 9 10 11 12 12 11 11 9 8 8 7 6 7 10 11 9 9 8 7 8 10 10 11 13 14 14 13 11 9 8 6 6 7 8 7 7 8 10 10 10 10 10 11 12 15 19 21 20 21 22 24 25 23 18 14 12 10 8 9 11 11 12
13 14 15 14 14 15 16 18 18 16 14 12 9 10 11 12 12 12 12 12 11 11 10 9 9 10 11 11 11 11 9 8 9 8 6 6 7 8 10 11 11 9 9 10 10 11 13 14 13 11 10 10 9 6 6 8 9 8 8 8 9 10 11 11 11 12 14 17 21 21 21 23 24 25 25 22 16 12 10 8 6 8 10 11 13
13 12 13 14 15 15 16 16 16 15 14 13 12 12 11 11 11 11 12 13 13 12 11 9 9 9 9 9 8 8 7 6 7 8 8 8 7 8 10 11 11 10 10 10 10 11 12 12 12 11 10 11 10 7 7 9 10 9 9 10 11 12 13 12 12 14 17 20 22 22 23 24 25 25 24 19 13 11 10 8 7 8 10 11 13
16 14 14 14 14 14 14 13 15 15 14 14 14 14 12 12 12 12 12 12 13 13 12 11 10 9 9 8 7 6 6 6 6 7 9 10 9 8 9 10 10 11 10 10 10 9 10 11 12 11 11 11 11 9 9 11 12 13 13 13 13 14 15 16 15 16 19 21 22 23 24 25 25 24 21 17 13 11 11 9 8 9 10 12 14
19 18 16 15 14 14 13 13 14 15 16 17 16 16 16 15 15 13 12 12 13 13 13 12 11 11 10 9 8 7 8 9 8 8 9 10 10 9 9 9 9 8 8 9 9 9 11 11 11 11 10 10 10 11 10 11 12 13 15 16 16 16 17 18 17 18 21 22 23 23 25 25 24 21 19 17 15 13 12 10 10 10 11 13 14
22 21 18 16 16 15 16 16 15 15 17 18 19 18 17 16 16 15 14 13 13 12 12 12 11 10 10 10 10 10 10 10 9 9 9 8 9 9 8 8 8 8 8 9 11 11 12 11 9 9 9 9 9 10 11 12 13 14 15 17 19 19 20 19 19 22 24 25 25 25 25 25 22 19 19 18 16 14 13 12 11 11 11 13 15
23 23 21 19 19 18 18 18 17 16 16 16 17 17 17 16 16 16 16 14 14 13 13 12 11 11 11 10 10 10 10 10 9 9 8 8 8 7 7 8 10 10 11 12 13 12 11 10 9 9 10 10 11 12 14 15 16 17 17 18 20 21 22 23 22 23 25 27 27 26 25 23 22 20 20 19 17 15 14 14 14 13 12 14 15
21 22 22 22 22 21 19 18 16 16 16 16 16 16 15 15 15 16 16 15 13 13 13 13 12 11 10 11 11 11 10 9 9 10 9 8 8 7 8 10 12 12 13 13 13 12 11 11 11 11 12 13 13 14 16 17 18 18 19 20 22 23 25 27 26 25 25 26 27 25 23 22 21 20 19 18 17 16 16 16 15 14 13 14 15
17 18 19 21 23 22 20 18 17 17 17 16 15 15 15 15 15 15 15 14 13 12 11 11 10 9 8 10 12 12 11 10 9 9 9 9 9 9 10 12 13 13 14 14 13 12 12 13 12 13 15 16 15 15 17 18 18 19 20 21 22 24 26 28 29 27 25 25 25 24 21 19 18 18 17 17 18 17 16 14 13 12 12 13 13
18 18 18 19 21 23 22 20 19 19 18 16 15 15 15 15 15 15 14 14 14 11 9 9 10 9 9 10 11 10 10 10 10 10 10 10 11 11 12 13 13 13 14 14 14 13 13 13 13 15 16 17 17 17 17 18 19 19 20 21 22 24 25 25 26 26 23 22 22 21 18 16 16 16 16 17 18 17 14 12 11 11 11 11 11
21 21 20 19 20 23 24 22 21 20 17 15 15 15 14 14 14 15 15 15 15 13 11 11 12 12 12 12 11 9 9 9 10 10 9 10 11 12 13 13 13 14 14 15 15 14 14 15 15 16 17 17 18 18 18 19 20 20 21 21 22 23 22 22 22 21 19 19 19 18 16 15 16 15 15 16 15 14 13 12 13 12 11 10 9
21 23 23 21 21 22 23 22 22 21 19 18 17 15 14 14 14 15 17 17 15 15 14 14 14 14 13 13 12 11 11 11 11 10 10 11 12 13 14 14 14 15 15 16 16 16 16 17 17 17 17 18 19 19 19 19 20 20 21 21 21 21 20 19 18 17 16 16 16 15 15 15 15 15 15 14 13 12 12 13 13 12 10 9 9
22 22 24 25 23 23 23 23 24 23 22 20 19 17 16 15 15 16 18 17 17 17 17 16 17 16 15 15 15 15 14 14 13 12 12 12 13 14 15 15 16 16 17 17 17 17 17 18 18 18 18 19 19 19 19 19 19 19 19 19 19 18 17 16 15 14 13 13 13 14 14 14 14 14 14 13 12 10 12 13 11 10 9 9 9
22 23 24 26 26 25 25 25 26 25 24 22 20 18 17 16 16 17 18 18 18 18 18 18 19 18 17 16 16 16 16 16 15 14 14 13 13 15 16 16 16 17 17 17 18 18 18 19 18 18 18 18 18 17 17 17 17 16 16 15 15 15 15 15 12 10 9 9 10 11 12 12 13 14 13 12 11 11 13 12 10 9 9 9 9
23 23 25 26 26 25 25 25 26 25 24 22 21 20 20 18 18 19 20 20 20 20 20 21 20 19 18 18 18 18 18 17 17 16 15 14 14 15 15 15 16 17 17 17 18 18 19 19 18 17 16 15 15 14 14 14 15 14 13 13 13 14 14 13 9 7 6 7 9 10 10 10 13 15 14 13 11 12 13 12 10 9 9 8 9
24 24 25 26 27 26 25 25 25 24 23 23 22 22 22 20 20 20 21 21 21 21 22 22 22 21 20 19 19 20 19 19 18 17 17 16 16 16 16 16 17 17 17 17 17 17 17 16 15 12 11 11 11 11 11 12 12 12 12 12 12 12 11 9 8 7 5 6 9 10 11 11 13 16 18 16 13 12 13 12 10 8 8 8 7
28 28 28 28 29 28 27 26 26 25 25 24 22 22 22 22 21 22 22 23 23 23 23 23 23 23 22 21 20 20 19 18 18 18 17 17 17 16 16 16 16 16 15 15 15 14 13 12 11 9 9 9 10 9 10 10 11 11 11 10 9 9 8 8 9 8 6 7 10 12 12 13 14 17 20 21 19 16 15 14 11 9 9 7 6
Wind_Direction
148 147 145 145 146 146 146 148 147 146 144 143 142 139 137 135 134 135 135 133 130 121 112 110 105 94 85 66 58 65 75 71 59 51 49 54 58 61 68 71 72 73 73 74 73 73 71 68 69 73 78 81 79 75 72 67 62 56 50 45 38 32 26 21 18 13 11 9 7 6 5 5 5 10 13 15 17 11 358 345 339 336 333 336 342
149 147 146 146 148 148 147 149 149 148 147 146 145 143 140 134 132 134 135 137 138 139 128 116 110 96 83 72 71 75 75 71 68 60 55 59 65 67 73 76 77 77 76 77 75 73 70 67 68 71 72 71 68 66 63 59 56 52 48 44 38 34 28 24 19 15 13 10 7 7 7 6 9 14 18 22 21 12 4 1 357 353 353 358 359
152 150 149 150 152 149 149 151 153 152 150 149 149 149 145 139 138 137 137 139 143 154 152 130 114 98 84 71 69 73 65 67 73 67 62 67 71 71 76 79 80 81 79 78 76 74 72 72 72 71 69 67 64 61 59 57 55 52 49 47 44 40 37 33 27 22 16 12 9 8 8 8 12 18 21 23 22 17 13 12 7 0 1 6 7
154 156 155 155 155 151 151 155 156 153 151 150 152 152 148 144 143 141 141 142 146 157 167 151 118 101 95 68 58 62 57 66 72 67 67 75 77 74 76 80 84 84 82 79 78 77 77 75 73 71 69 67 65 63 61 59 58 56 54 54 54 52 50 47 42 36 28 23 19 17 17 17 21 24 27 29 27 23 19 18 14 8 10 16 18
156 158 158 158 156 154 156 158 156 154 152 150 151 153 151 149 147 147 148 147 149 157 177 174 124 97 110 77 36 37 47 67 70 62 65 80 83 78 81 88 91 88 83 80 78 77 76 75 72 71 69 67 67 67 69 69 67 66 63 63 63 62 61 59 55 51 45 40 36 34 32 31 33 34 37 39 37 34 30 29 26 21 22 25 22
158 158 159 161 159 158 159 158 156 153 151 151 153 155 155 156 154 155 155 148 149 156 174 180 148 92 95 188 138 62 43 66 68 60 58 74 82 80 91 97 95 88 83 80 77 74 72 71 69 68 68 68 69 72 75 78 77 76 74 72 70 68 66 64 61 57 53 50 47 45 42 41 41 41 43 45 43 40 36 34 31 26 23 23 19
164 163 163 166 164 162 161 159 156 151 149 151 153 156 158 160 158 158 157 149 148 145 144 149 141 92 66 161 155 144 160 66 60 56 53 65 78 90 102 102 97 87 82 81 79 77 73 70 68 68 70 72 75 79 81 83 83 82 78 75 71 68 66 63 59 56 53 50 48 46 45 44 43 43 44 44 43 39 33 31 28 23 18 17 15
171 170 169 170 169 166 163 162 158 152 151 151 152 157 162 163 161 159 157 150 144 139 139 136 130 111 89 131 154 162 178 94 56 56 64 77 92 111 111 104 102 91 85 87 85 84 80 76 73 72 73 76 79 83 84 84 83 80 76 71 68 64 62 59 56 52 49 45 43 42 41 41 40 39 38 38 37 34 29 26 23 19 14 10 9
172 174 176 176 173 168 166 164 159 153 155 159 160 165 168 167 163 158 154 147 142 145 145 138 136 139 127 127 153 166 174 155 52 51 70 86 93 110 114 104 104 96 95 96 92 89 87 86 83 81 81 79 80 82 83 81 79 76 71 67 63 58 55 54 53 49 45 41 37 35 34 33 33 32 30 29 27 26 24 20 17 13 8 2 360
168 172 176 178 175 172 171 166 162 159 162 168 171 172 170 168 163 156 153 149 146 145 144 145 147 151 148 130 141 165 174 182 99 61 81 92 87 98 104 102 101 101 102 102 95 89 89 92 92 92 90 85 81 79 78 76 73 71 67 63 59 54 49 47 46 44 42 39 34 31 28 26 25 25 23 21 19 17 15 14 11 6 2 356 352
165 167 171 173 172 172 173 169 166 166 167 172 175 173 167 163 160 156 156 154 150 146 144 150 154 153 153 147 147 173 184 163 127 101 106 102 86 90 96 97 96 99 101 98 96 91 91 96 96 96 96 91 84 75 73 70 67 66 63 59 55 50 44 40 38 36 35 34 30 27 24 22 20 19 17 16 15 13 11 9 7 3 358 354 349
164 165 168 169 169 170 172 169 167 167 167 169 169 167 162 158 159 160 161 156 151 150 151 164 172 170 164 163 175 192 192 171 163 148 122 105 85 79 83 91 86 91 100 94 93 97 100 100 97 96 94 91 86 77 72 69 66 64 60 54 48 43 36 32 30 28 27 26 25 22 18 16 16 15 12 10 9 8 8 7 6 3 360 356 352
168 167 166 167 167 169 170 167 166 166 163 161 161 161 159 160 164 166 161 158 154 149 146 159 171 175 172 173 188 202 205 204 210 202 156 120 95 63 60 72 72 79 99 97 88 90 97 98 95 94 91 87 85 81 75 69 65 59 54 48 40 35 29 24 22 21 20 18 19 18 14 10 9 10 9 6 3 1 2 4 4 3 2 360 355
171 170 165 165 168 171 171 168 168 165 157 156 159 160 163 167 169 166 162 167 163 147 140 148 157 165 173 180 189 196 202 211 222 227 219 195 176 51 51 58 61 73 88 91 85 81 84 94 97 93 90 84 78 76 69 60 53 47 44 40 34 30 24 19 15 13 14 14 13 13 10 7 4 4 5 3 359 355 353 355 359 0 0 359 355
172 171 168 169 169 169 166 163 164 163 160 162 164 167 171 173 170 164 158 160 160 150 144 152 157 154 160 178 188 192 201 210 218 230 232 221 215 231 59 64 68 81 87 86 82 77 79 91 97 90 82 74 60 52 46 37 32 28 28 28 24 20 15 13 10 7 9 12 12 10 8 6 3 2 1 359 356 352 348 346 349 353 354 353 351
176 175 172 167 161 160 160 160 165 165 163 165 168 173 175 172 169 165 152 143 149 153 149 158 169 157 145 162 178 190 207 215 215 219 224 220 214 221 193 77 76 86 96 95 85 76 75 84 90 81 70 64 49 34 27 21 19 15 13 11 9 7 5 6 7 4 5 10 12 10 7 6 4 2 359 357 355 351 347 343 342 345 346 346 345
179 174 169 162 158 162 167 170 173 167 163 164 169 175 174 171 169 162 151 142 141 144 139 147 169 179 174 177 185 206 227 236 226 217 217 218 209 210 219 116 87 84 92 101 94 83 76 77 81 74 64 57 43 29 20 13 11 9 6 5 2 360 357 360 4 6 6 7 9 8 7 8 8 7 3 359 355 351 349 346 343 343 343 342 340
174 167 163 164 166 169 171 174 174 168 166 168 173 177 175 172 167 155 147 145 145 144 136 135 152 180 191 172 150 198 229 231 226 220 220 220 212 205 208 185 105 83 69 82 90 89 84 81 76 63 49 41 32 22 16 11 7 3 2 2 360 358 357 359 3 7 7 5 4 6 8 10 11 11 9 5 358 353 350 348 347 346 344 342 339
171 165 168 172 172 171 169 170 170 168 171 174 178 181 178 173 164 153 147 151 159 162 151 142 143 152 146 128 102 75 75 153 199 210 213 213 211 209 205 204 175 83 46 21 68 84 86 91 72 46 31 26 21 17 15 10 4 359 356 356 358 1 0 0 4 7 6 3 3 5 7 10 11 11 11 9 3 358 354 352 351 350 348 344 341
177 172 173 174 175 177 173 172 172 170 172 174 178 181 179 174 165 157 154 160 169 171 162 156 147 145 147 139 130 94 69 95 135 174 198 196 199 207 209 212 221 233 272 303 322 318 344 338 305 347 354 8 12 13 12 6 0 357 353 355 0 2 0 360 2 4 3 3 4 6 6 7 8 9 11 11 8 3 0 359 358 355 353 350 348
184 177 175 175 175 177 177 176 175 174 175 174 176 180 179 177 173 167 166 170 172 171 169 164 152 150 163 163 152 125 88 93 83 87 158 185 193 202 208 215 228 238 242 277 295 291 293 282 270 291 313 345 1 8 9 3 359 357 356 359 1 358 357 357 357 359 3 4 4 5 3 3 6 9 12 13 11 8 6 6 5 2 359 357 356
188 181 177 178 177 176 180 181 181 182 182 179 179 182 183 182 182 179 179 180 176 177 177 167 155 147 142 141 144 133 110 104 71 71 114 167 190 198 203 217 233 237 247 271 291 306 303 280 267 271 290 325 348 2 7 2 360 360 355 354 354 350 350 352 353 357 2 2 357 359 358 358 4 9 12 14 14 14 14 12 9 6 3 1 0
191 187 180 181 180 176 180 184 186 185 181 183 186 185 185 187 188 187 187 188 184 186 189 178 169 157 138 120 113 103 91 92 62 50 83 127 170 188 193 200 214 217 232 257 303 5 346 306 275 269 285 316 334 353 4 359 355 354 346 341 343 343 343 347 350 354 358 356 348 346 348 351 359 4 8 12 16 19 18 16 12 8 5 3 0
193 190 185 185 183 179 181 183 185 184 180 185 187 183 183 185 190 190 189 194 194 196 203 196 184 165 144 124 104 81 76 92 71 43 45 101 158 186 196 195 182 187 211 239 316 354 350 350 339 303 303 316 320 343 357 349 347 346 338 340 345 342 340 344 349 353 354 350 342 336 334 339 348 356 2 8 14 16 15 16 16 13 10 6 2
196 191 187 188 186 183 185 184 182 183 181 181 181 179 180 182 188 192 193 197 201 207 213 202 189 173 154 132 113 120 113 105 77 31 13 308 208 208 224 240 236 216 224 249 289 335 356 359 350 333 322 317 312 330 341 338 341 342 335 340 346 342 338 342 348 352 349 346 341 332 328 333 344 352 356 1 6 9 8 11 14 13 12 10 6
197 192 189 190 190 188 189 186 181 180 182 183 180 177 180 181 185 193 199 200 202 209 207 196 189 179 173 166 166 201 187 129 100 341 301 279 255 247 250 256 259 258 260 268 278 288 300 324 338 341 337 322 312 319 325 323 328 335 334 335 337 334 333 337 346 351 349 350 346 339 338 342 349 355 357 357 357 359 359 2 6 9 8 6 5
198 194 193 193 193 191 193 192 185 183 187 186 183 180 182 184 184 190 200 201 201 203 199 197 194 189 189 194 199 213 221 216 192 219 262 273 282 282 277 274 271 270 273 276 275 278 286 296 311 323 328 310 295 298 303 304 311 321 326 327 328 328 329 334 343 348 353 355 350 349 352 351 350 356 359 355 351 352 353 352 355 359 360 358 358
200 197 196 195 196 195 194 194 190 189 192 191 190 189 186 185 186 191 197 200 201 198 195 199 203 208 211 208 209 213 224 237 241 250 267 274 282 286 286 287 287 285 285 281 275 273 281 284 283 286 292 291 287 287 290 294 303 313 316 318 322 325 330 334 336 340 347 345 343 350 354 350 349 353 353 352 351 350 349 346 345 349 350 348 348
201 200 197 195 197 200 198 197 194 194 197 198 200 199 196 194 194 198 200 200 199 196 198 203 208 216 215 209 213 216 224 239 245 245 253 265 275 284 286 286 288 291 293 297 298 295 294 295 291 288 290 292 292 291 290 292 298 307 310 313 317 322 330 333 328 333 335 330 331 342 347 347 350 350 349 350 352 350 346 343 341 341 340 337 337
202 202 199 195 198 202 204 204 203 201 202 204 206 203 203 204 203 206 208 205 203 199 200 206 207 207 204 204 212 217 222 233 235 235 243 250 263 282 287 280 281 291 302 313 320 329 334 330 323 319 316 309 304 299 295 294 294 297 302 308 312 317 325 330 332 339 343 341 341 346 347 348 347 347 349 348 346 341 338 337 335 331 327 326 328
203 203 200 199 201 202 206 211 209 206 206 209 212 210 210 211 207 209 213 212 211 206 200 204 208 206 204 209 218 222 224 228 230 238 245 248 252 269 289 279 280 292 305 310 314 331 341 334 335 341 338 330 321 312 306 304 301 301 305 311 316 322 328 333 339 351 4 10 7 357 352 349 346 346 345 339 332 328 326 325 325 323 323 327 330
206 209 209 210 210 207 209 215 211 206 208 213 215 214 214 214 210 210 216 216 216 213 206 206 214 215 212 213 223 234 239 241 245 250 250 251 256 261 270 274 276 280 285 289 295 306 317 316 323 337 338 332 328 321 317 320 320 319 325 337 349 354 354 354 351 350 0 8 4 356 354 353 350 347 342 335 326 319 316 317 320 325 333 340 338
210 214 218 221 222 221 219 223 219 209 207 214 218 214 211 212 209 209 215 218 217 220 221 220 223 227 224 221 227 237 243 246 251 253 250 250 254 254 264 280 281 272 271 280 289 294 298 304 314 324 327 325 326 325 328 340 348 350 4 16 12 8 3 354 345 337 344 353 354 352 351 348 346 346 346 343 336 327 321 321 326 337 346 344 336
217 218 220 221 224 228 229 230 229 218 210 214 220 217 211 213 215 213 218 224 221 219 229 232 230 236 240 238 240 245 250 251 246 243 241 243 244 244 257 288 288 267 269 280 287 291 295 304 311 316 319 321 326 334 343 352 355 1 18 13 359 351 344 337 332 329 334 341 345 344 341 338 337 341 345 346 345 343 340 338 344 352 350 342 335
220 221 222 222 223 229 230 228 227 223 213 211 220 222 213 213 220 221 225 231 226 222 232 235 232 238 244 245 248 256 266 261 233 218 220 229 232 236 256 284 283 270 276 282 286 293 299 304 308 310 316 322 329 340 341 335 331 331 342 346 341 338 335 329 326 324 326 331 334 334 332 331 332 336 342 345 345 347 350 351 356 355 347 339 332
223 225 228 232 232 231 225 221 223 224 215 209 222 234 222 215 220 225 230 234 231 232 238 238 238 241 240 242 245 250 259 251 231 227 235 240 237 246 265 275 275 277 280 280 286 294 297 300 305 311 318 322 327 336 328 322 325 324 320 322 326 330 331 328 323 319 318 322 325 327 328 328 330 335 341 343 342 342 346 347 348 342 335 335 335
227 230 231 233 234 230 222 217 218 220 218 219 226 236 236 229 225 224 227 232 235 238 240 241 242 239 236 240 241 243 248 246 240 241 245 251 253 257 264 267 271 274 275 276 285 291 292 297 306 312 314 314 315 319 316 316 320 317 310 312 319 321 319 319 317 313 315 318 321 324 325 326 330 335 340 342 338 337 340 332 325 327 328 334 336
229 230 231 232 232 230 225 220 217 216 221 228 230 236 244 243 236 228 224 227 233 239 244 246 247 245 242 239 237 240 247 248 250 246 240 242 245 251 264 272 274 272 269 273 282 292 298 300 304 306 306 309 312 314 314 314 314 311 306 306 308 309 310 314 316 317 318 320 322 324 326 330 334 336 339 340 335 333 336 327 319 323 327 330 330
227 226 226 230 233 233 231 230 229 226 229 234 235 239 244 243 240 235 231 231 232 236 242 244 247 250 247 239 235 240 245 248 252 252 243 238 238 247 264 273 278 279 280 284 289 296 300 298 297 301 303 311 318 318 316 314 311 308 307 308 311 314 318 321 323 326 327 324 324 327 331 334 335 336 340 343 338 333 333 330 322 318 320 326 329
224 225 224 226 231 234 233 234 236 236 236 237 236 238 240 237 234 234 235 236 234 235 238 238 240 244 244 243 245 249 252 256 261 261 251 240 238 244 254 262 273 286 293 296 297 296 294 293 295 300 302 306 311 312 309 307 305 308 313 318 322 325 326 326 328 331 330 327 327 331 335 336 337 340 342 342 341 338 337 338 331 320 316 321 326
222 224 224 226 230 232 232 231 234 238 239 237 234 234 235 232 230 234 238 240 240 240 241 239 239 239 241 245 245 247 252 254 256 255 242 231 235 247 258 260 264 274 284 291 293 290 287 286 287 289 289 292 298 301 303 307 311 314 318 321 323 324 323 323 327 331 330 328 329 335 340 340 339 341 341 341 342 342 341 339 334 328 322 318 318
223 224 225 229 232 231 230 228 231 236 238 237 235 233 234 232 231 235 239 242 245 247 248 247 245 244 245 246 242 241 245 245 246 246 239 232 236 247 258 259 259 268 276 281 282 280 278 278 279 281 285 291 297 299 302 307 311 314 316 318 319 320 321 322 326 331 332 329 330 337 343 341 339 342 344 342 343 344 342 340 335 332 328 320 314
227 227 228 231 232 232 233 231 230 232 235 236 236 234 233 234 234 236 240 244 249 253 254 249 242 235 235 238 238 239 243 245 250 252 249 250 250 247 249 254 259 267 272 276 277 275 277 278 280 285 291 296 299 299 300 304 308 310 312 315 317 318 320 321 324 330 334 331 331 337 342 340 340 346 349 350 353 355 356 355 351 344 337 329 323
231 230 228 229 231 231 233 233 231 233 235 236 235 235 236 236 236 238 240 243 244 243 240 235 227 218 217 227 234 240 246 252 261 264 262 260 255 250 251 257 263 268 272 276 277 276 278 281 285 290 293 295 297 298 299 301 303 306 308 311 313 314 317 319 323 329 334 332 332 337 342 341 341 348 355 360 6 12 17 19 15 9 3 357 347
232 233 230 229 229 228 229 230 231 235 237 237 236 237 238 238 239 240 238 238 239 234 229 231 230 224 223 228 234 243 252 259 266 269 266 259 254 252 256 260 263 266 271 274 273 273 275 281 287 292 293 294 296 297 297 299 302 304 306 308 310 311 315 320 325 331 333 330 331 337 341 340 342 349 357 2 10 20 30 33 30 29 31 26 12
229 231 230 230 229 227 227 229 233 237 238 237 238 239 239 240 242 241 238 236 237 236 234 238 242 241 240 240 244 252 258 261 267 270 267 263 261 260 260 259 260 263 267 270 271 270 273 281 289 292 292 293 294 295 297 299 301 302 303 305 307 311 316 321 327 331 328 326 329 334 338 340 342 348 356 2 11 21 28 31 30 31 34 32 19
228 230 229 230 231 230 231 233 235 238 237 237 238 237 237 239 241 241 238 234 236 241 242 243 249 253 253 250 250 253 256 259 263 267 269 269 269 266 261 259 260 263 266 269 272 273 277 284 288 289 290 291 293 296 298 297 297 298 301 304 307 312 315 317 323 324 319 320 325 330 339 344 342 347 1 9 14 22 26 26 24 20 19 17 14
228 230 229 230 233 235 235 235 235 236 235 237 239 237 234 236 238 240 239 236 237 241 245 247 251 255 258 256 252 251 253 257 260 264 268 270 268 264 261 260 263 265 268 271 274 278 282 286 287 287 289 291 293 294 293 292 293 296 299 302 304 305 306 310 321 326 322 326 330 334 345 349 341 345 0 12 18 26 30 27 20 11 5 1 360
226 228 228 230 232 233 232 231 230 231 231 234 239 240 239 238 239 240 240 240 240 242 245 248 252 256 259 259 257 255 255 257 261 265 267 266 262 259 259 262 265 268 271 273 276 280 283 285 286 287 288 289 289 288 286 287 289 293 297 298 299 302 306 315 334 352 349 339 333 337 347 347 340 341 348 0 12 19 22 20 13 6 2 357 355
228 227 227 227 229 229 229 229 229 231 233 237 240 242 242 240 240 241 241 242 243 244 246 250 254 256 258 259 258 257 257 259 263 265 264 263 260 259 261 265 268 270 272 273 274 276 277 278 280 280 278 275 276 278 279 281 286 292 297 298 299 306 313 326 349 6 2 329 323 332 341 338 335 337 339 345 357 7 10 8 359 352 353 356 354
237 236 234 233 234 236 237 237 238 239 241 242 243 244 244 243 241 241 243 244 245 246 248 250 252 254 256 256 255 255 257 260 262 263 264 265 266 267 268 271 271 270 268 267 266 265 263 261 256 250 250 255 260 264 268 274 284 291 294 294 297 309 321 337 348 350 342 326 323 331 336 333 333 337 339 342 348 356 4 5 357 351 355 356 348